Home > Weather > Quesnel > Past weeks

Flag for Canada Weather for the Past 2 Weeks in Quesnel, British Columbia, Canada

Now
34 °F

Overcast.


Feels Like: 34 °F
Forecast: 31 / 40 °F
Wind: 2 mph from North

Location: Quesnel Airport

Current Time: Feb 14, 2016 at 5:21:46 AM

Latest Report: Feb 14, 2016 at 5:00 AM


Visibility: 9 mi

Pressure: 29.90 "Hg

Humidity: 93%

Dew point: 32 °F

Location of QuesnelLocation

Historic Weather in Quesnel — Graph

°F

Quesnel Temperature Yesterday

Maximum temperature yesterday: 39 °F (at 7:00 PM)
Minimum temperature yesterday: 32 °F (at 7:00 AM)
Average temperature yesterday: 36 °F

High & Low Weather Summary for the Past Weeks

 TemperatureHumidityPressure
High50 °F (Feb 9, 3:00 PM)100% (Jan 30, 4:00 AM)30.56 "Hg (Jan 30, 4:00 AM)
Low12 °F (Feb 3, 6:00 AM)29% (Feb 6, 3:00 PM)29.54 "Hg (Feb 5, 7:00 PM)
Average33 °F86%30.11 "Hg
* Reported Jan 30 4:00 AM — Feb 14 4:00 AM, Quesnel, Weather by CustomWeather, © 2016

Note: Actual official high and low records may vary slightly from our data, if they occured in-between our weather recording intervals... More about our weather records

Advertising

Quesnel Weather History for the Previous 24 Hours

 ConditionsComfort  
Time TempWeatherWind HumidityBarometerVisibility
4:00 AM
Sun, Feb 14
36 °FOvercast.3 mph81%29.86 "Hg9 mi
3:00 AM36 °FOvercast.5 mph87%29.86 "Hg9 mi
2:00 AM39 °FMostly cloudy.12 mph70%29.84 "Hg9 mi
1:00 AM39 °FOvercast.9 mph70%29.82 "Hg9 mi
12:00 AM39 °FMostly cloudy.10 mph75%29.80 "Hg9 mi
11:00 PM
Sat, Feb 13
39 °FOvercast.8 mph75%29.79 "Hg9 mi
10:00 PM39 °FMostly cloudy.9 mph81%29.78 "Hg9 mi
9:00 PM39 °FMostly cloudy.7 mph81%29.78 "Hg9 mi
8:00 PM39 °FLight rain. Mostly cloudy.9 mph81%29.79 "Hg9 mi
7:00 PM39 °FLight rain. Mostly cloudy.10 mph81%29.81 "Hg9 mi
6:00 PM37 °FOvercast.5 mph93%29.83 "Hg9 mi
5:00 PM37 °FLight rain. Overcast.9 mph100%29.85 "Hg9 mi
4:00 PM37 °FOvercast.2 mph100%29.86 "Hg9 mi
3:00 PM37 °FMostly cloudy.No wind100%29.90 "Hg9 mi
2:00 PM37 °FPassing clouds.2 mph100%29.93 "Hg9 mi
1:00 PM37 °FSunny.5 mph100%29.95 "Hg9 mi
12:00 PM36 °FFog.No wind100%29.97 "Hg3 mi
11:02 AM34 °FFog.2 mph100%30.00 "Hg6 mi
10:04 AM34 °FFog.7 mph100%30.03 "Hg2 mi
9:00 AM32 °FIce fog.3 mph100%30.03 "Hg6 mi
8:00 AM32 °FLow clouds.5 mph100%30.03 "Hg9 mi
7:00 AM32 °FFog.2 mph100%30.05 "Hg1 mi
6:00 AM34 °FFog.2 mph100%30.03 "Hg0 mi
5:00 AM34 °FFog.2 mph100%30.03 "Hg1 mi
Weather by CustomWeather, © 2016

See weather overviewHow to use our weather pages